Temp
-13 -14 -14 -13 -13 -14 -13 -12 -11 -12 -11 -11 -11 -11 -12 -12 -11 -11 -11 -12 -12 -13 -13 -13 -13 -12 -12 -12 -12 -12 -12 -12 -12 -13 -13 -13 -14 -14 -14 -14 -14 -14 -15
-14 -13 -14 -13 -13 -12 -12 -12 -12 -12 -11 -12 -12 -12 -12 -11 -12 -12 -11 -12 -12 -12 -12 -13 -13 -12 -12 -12 -12 -12 -12 -13 -13 -13 -13 -14 -14 -14 -14 -15 -14 -15 -15
-14 -13 -13 -13 -13 -12 -13 -12 -12 -12 -11 -11 -12 -12 -12 -12 -12 -12 -12 -12 -12 -12 -12 -13 -13 -12 -12 -12 -12 -12 -13 -13 -13 -13 -13 -14 -14 -15 -15 -15 -15 -15 -15
-14 -14 -13 -13 -12 -12 -12 -12 -12 -12 -12 -13 -12 -12 -12 -12 -11 -11 -11 -11 -12 -12 -13 -12 -12 -12 -12 -12 -12 -13 -13 -13 -14 -14 -14 -14 -15 -15 -15 -16 -15 -16 -15
-13 -13 -13 -13 -13 -12 -12 -12 -12 -12 -12 -12 -12 -12 -11 -11 -11 -12 -12 -12 -12 -12 -12 -12 -12 -12 -13 -13 -13 -13 -13 -14 -14 -14 -14 -15 -15 -15 -16 -16 -16 -16 -16
-13 -13 -13 -13 -12 -12 -12 -12 -12 -12 -12 -12 -12 -11 -11 -11 -11 -12 -12 -12 -12 -12 -12 -13 -13 -13 -13 -13 -13 -13 -14 -15 -14 -14 -15 -15 -15 -16 -16 -16 -17 -16 -16
-14 -14 -13 -13 -12 -12 -12 -12 -12 -12 -12 -12 -12 -12 -12 -11 -11 -12 -12 -12 -12 -12 -13 -13 -13 -13 -14 -14 -15 -14 -14 -14 -15 -15 -15 -15 -16 -16 -16 -17 -17 -17 -17
-14 -14 -14 -13 -13 -13 -12 -12 -12 -12 -12 -12 -12 -12 -12 -12 -12 -13 -13 -13 -13 -13 -13 -13 -13 -14 -14 -14 -14 -14 -14 -15 -15 -15 -16 -16 -16 -17 -16 -17 -17 -18 -17
-16 -16 -16 -14 -13 -13 -13 -13 -13 -13 -13 -13 -13 -12 -12 -12 -13 -13 -13 -13 -13 -13 -13 -14 -14 -14 -14 -14 -14 -15 -15 -15 -16 -16 -16 -16 -17 -17 -17 -18 -18 -19 -18
-17 -16 -17 -16 -15 -14 -15 -14 -14 -14 -14 -13 -13 -13 -14 -13 -13 -13 -14 -14 -13 -14 -14 -14 -14 -14 -14 -14 -15 -15 -15 -16 -16 -16 -17 -17 -17 -17 -17 -18 -19 -19 -19
-18 -17 -17 -16 -16 -15 -15 -15 -15 -15 -15 -14 -14 -14 -14 -14 -14 -14 -14 -14 -14 -15 -15 -15 -15 -15 -15 -16 -16 -16 -16 -16 -17 -17 -17 -17 -17 -18 -18 -18 -19 -19 -19
-18 -17 -17 -17 -16 -16 -15 -15 -16 -16 -15 -15 -15 -15 -14 -14 -15 -15 -15 -15 -15 -15 -15 -15 -16 -16 -16 -16 -16 -16 -16 -17 -17 -17 -17 -18 -18 -18 -19 -19 -19 -19 -20
-19 -18 -17 -17 -16 -16 -16 -16 -16 -15 -15 -15 -15 -15 -15 -16 -16 -16 -16 -17 -16 -16 -16 -16 -16 -16 -17 -16 -16 -16 -17 -17 -18 -18 -18 -18 -18 -18 -19 -19 -19 -19 -20
-19 -19 -18 -18 -17 -16 -16 -15 -15 -15 -15 -15 -15 -15 -16 -16 -16 -17 -17 -17 -17 -17 -17 -17 -16 -17 -17 -17 -17 -17 -18 -18 -17 -18 -18 -18 -18 -19 -19 -19 -19 -20 -21
-19 -18 -18 -18 -18 -17 -16 -16 -16 -15 -16 -16 -15 -15 -16 -16 -17 -17 -17 -17 -17 -17 -17 -16 -17 -17 -17 -17 -18 -18 -18 -18 -18 -18 -18 -18 -18 -19 -19 -19 -20 -20 -21
-19 -19 -18 -18 -18 -18 -17 -17 -16 -16 -16 -17 -17 -16 -16 -16 -17 -18 -18 -18 -18 -18 -18 -17 -17 -17 -17 -18 -18 -18 -18 -18 -18 -18 -18 -18 -19 -19 -19 -20 -20 -21 -21
-20 -20 -19 -19 -18 -18 -18 -18 -17 -17 -17 -17 -17 -17 -17 -17 -18 -18 -19 -18 -18 -18 -17 -17 -17 -17 -17 -18 -18 -18 -18 -18 -18 -18 -19 -19 -19 -19 -19 -20 -21 -21 -22
-20 -20 -20 -19 -19 -19 -18 -18 -17 -17 -17 -17 -18 -18 -18 -18 -19 -19 -18 -18 -18 -18 -18 -18 -18 -17 -17 -17 -17 -18 -18 -19 -18 -19 -19 -19 -19 -20 -20 -21 -21 -22 -22
-21 -20 -20 -20 -20 -19 -19 -18 -18 -17 -17 -17 -18 -18 -18 -19 -19 -18 -18 -18 -18 -18 -18 -18 -18 -17 -17 -18 -18 -18 -19 -19 -19 -19 -19 -20 -20 -20 -21 -21 -22 -22 -23
-22 -22 -21 -21 -20 -20 -19 -19 -19 -18 -17 -17 -17 -18 -18 -18 -18 -18 -18 -18 -18 -18 -18 -17 -17 -18 -18 -18 -19 -19 -18 -19 -19 -19 -20 -20 -20 -21 -22 -22 -22 -23 -23
-22 -22 -22 -22 -21 -21 -20 -20 -20 -19 -18 -18 -18 -18 -18 -18 -18 -18 -18 -18 -18 -17 -17 -18 -18 -18 -18 -19 -18 -19 -19 -20 -20 -20 -20 -20 -21 -22 -22 -22 -23 -23 -23
-24 -23 -22 -22 -22 -21 -21 -20 -20 -20 -20 -19 -19 -18 -19 -19 -19 -18 -18 -18 -18 -18 -18 -18 -18 -19 -19 -19 -19 -19 -20 -20 -20 -20 -21 -21 -22 -22 -22 -23 -23 -23 -23
-24 -24 -23 -22 -22 -22 -22 -21 -20 -20 -19 -19 -19 -19 -19 -18 -18 -19 -19 -19 -18 -18 -18 -18 -19 -19 -20 -20 -20 -20 -20 -21 -21 -21 -21 -22 -22 -22 -23 -23 -23 -23 -23
-24 -24 -24 -24 -23 -22 -22 -22 -21 -20 -20 -19 -20 -20 -20 -19 -19 -19 -19 -19 -19 -19 -19 -19 -19 -20 -20 -20 -20 -21 -21 -21 -22 -22 -22 -22 -22 -23 -23 -23 -23 -23 -23
-26 -25 -24 -24 -23 -22 -22 -22 -21 -21 -21 -20 -20 -20 -20 -20 -20 -20 -20 -20 -20 -20 -20 -20 -20 -20 -21 -21 -21 -21 -22 -22 -22 -23 -23 -23 -23 -23 -23 -23 -23 -24 -24
-28 -28 -27 -26 -25 -24 -23 -23 -23 -22 -21 -21 -22 -21 -21 -21 -21 -21 -21 -21 -21 -21 -21 -21 -21 -21 -22 -22 -22 -22 -22 -23 -23 -23 -23 -23 -23 -23 -23 -24 -24 -24 -24
Height
5720 5722 5724 5724 5728 5728 5729 5731 5734 5737 5738 5740 5744 5744 5743 5743 5744 5744 5746 5746 5746 5744 5743 5743 5744 5744 5745 5745 5744 5743 5742 5739 5738 5736 5733 5728 5724 5720 5716 5712 5708 5704 5700
5706 5709 5712 5715 5718 5720 5721 5721 5722 5725 5726 5727 5729 5731 5732 5733 5733 5731 5732 5733 5733 5732 5731 5730 5733 5732 5733 5734 5734 5732 5730 5728 5726 5724 5722 5718 5714 5709 5705 5701 5697 5693 5689
5691 5696 5700 5702 5704 5706 5708 5710 5710 5712 5715 5714 5715 5719 5722 5723 5722 5720 5718 5717 5719 5721 5720 5721 5722 5721 5722 5722 5721 5720 5718 5717 5714 5712 5710 5707 5703 5698 5695 5691 5686 5682 5679
5678 5682 5685 5687 5689 5692 5694 5696 5700 5699 5700 5702 5706 5708 5709 5710 5711 5710 5708 5706 5707 5708 5709 5711 5711 5710 5709 5709 5708 5707 5706 5704 5702 5699 5697 5695 5691 5687 5682 5678 5673 5668 5665
5668 5670 5672 5673 5675 5679 5682 5684 5685 5687 5689 5689 5693 5695 5696 5698 5699 5698 5697 5696 5696 5697 5698 5698 5697 5697 5697 5697 5696 5695 5694 5692 5689 5687 5685 5682 5678 5674 5670 5665 5661 5656 5652
5652 5655 5656 5657 5660 5663 5667 5670 5672 5673 5675 5677 5679 5680 5682 5684 5684 5684 5683 5683 5682 5683 5685 5685 5685 5685 5685 5684 5683 5682 5681 5679 5677 5674 5672 5669 5665 5661 5656 5653 5649 5645 5640
5638 5636 5637 5640 5646 5649 5651 5654 5658 5660 5660 5663 5665 5666 5668 5670 5670 5669 5669 5669 5670 5671 5672 5672 5672 5672 5671 5669 5668 5667 5666 5665 5663 5660 5658 5654 5651 5646 5643 5640 5636 5632 5628
5622 5621 5624 5627 5630 5632 5635 5638 5640 5642 5645 5648 5650 5651 5652 5654 5655 5654 5654 5654 5656 5657 5658 5658 5657 5657 5656 5655 5654 5653 5652 5651 5648 5645 5643 5640 5637 5632 5628 5625 5621 5618 5615
5603 5606 5607 5609 5613 5615 5618 5620 5622 5624 5627 5630 5632 5635 5636 5639 5640 5639 5638 5639 5642 5642 5643 5643 5643 5642 5641 5640 5639 5638 5637 5635 5633 5630 5627 5624 5621 5615 5613 5610 5607 5604 5601
5585 5588 5591 5593 5595 5598 5602 5604 5605 5607 5610 5612 5615 5617 5619 5621 5622 5622 5622 5623 5626 5626 5626 5627 5626 5626 5624 5624 5623 5623 5622 5619 5616 5614 5611 5607 5604 5602 5598 5594 5591 5589 5586
5566 5570 5573 5574 5577 5580 5582 5586 5589 5590 5592 5595 5597 5599 5601 5603 5604 5604 5605 5606 5608 5609 5609 5610 5610 5609 5608 5608 5607 5606 5605 5601 5600 5598 5594 5591 5590 5587 5583 5579 5575 5573 5572
5547 5550 5553 5555 5557 5560 5563 5567 5570 5572 5574 5577 5579 5581 5583 5584 5586 5586 5587 5588 5589 5590 5592 5592 5592 5591 5591 5590 5590 5589 5587 5584 5582 5580 5577 5576 5574 5571 5566 5564 5561 5558 5556
5528 5531 5534 5536 5539 5541 5543 5547 5550 5553 5556 5559 5560 5563 5566 5567 5568 5569 5570 5571 5572 5573 5574 5573 5572 5574 5574 5574 5572 5571 5569 5566 5565 5564 5561 5559 5557 5554 5551 5548 5546 5542 5540
5510 5512 5514 5517 5519 5521 5524 5528 5531 5535 5536 5539 5542 5543 5546 5547 5549 5551 5552 5552 5554 5554 5554 5553 5555 5556 5556 5556 5554 5554 5552 5549 5547 5545 5544 5542 5540 5538 5535 5533 5530 5527 5525
5488 5492 5494 5496 5499 5502 5505 5508 5511 5514 5517 5519 5522 5523 5524 5527 5529 5530 5530 5531 5532 5532 5531 5534 5536 5538 5537 5536 5535 5535 5533 5531 5529 5527 5526 5524 5523 5521 5519 5517 5514 5512 5510
5466 5470 5474 5476 5479 5482 5485 5488 5490 5493 5495 5498 5501 5503 5504 5505 5506 5507 5507 5509 5511 5511 5512 5516 5518 5518 5517 5516 5517 5516 5514 5512 5511 5509 5508 5507 5505 5504 5502 5500 5498 5496 5495
5444 5448 5452 5456 5458 5462 5464 5466 5469 5471 5474 5477 5479 5481 5483 5484 5485 5485 5486 5488 5489 5491 5494 5497 5498 5498 5498 5497 5496 5496 5495 5494 5492 5492 5491 5489 5487 5486 5485 5484 5483 5481 5478
5421 5426 5430 5434 5437 5440 5442 5444 5447 5450 5453 5455 5457 5460 5461 5462 5463 5465 5466 5467 5469 5472 5475 5477 5476 5476 5477 5476 5477 5477 5477 5476 5476 5474 5472 5471 5470 5469 5468 5467 5466 5464 5461
5398 5403 5407 5412 5416 5419 5422 5425 5427 5430 5432 5434 5435 5438 5440 5442 5443 5445 5446 5449 5451 5453 5452 5454 5454 5453 5455 5457 5456 5455 5456 5457 5457 5455 5454 5452 5452 5452 5451 5450 5448 5446 5444
5376 5380 5385 5390 5394 5398 5400 5403 5406 5407 5410 5413 5414 5415 5417 5419 5421 5424 5427 5428 5428 5429 5429 5431 5432 5435 5436 5436 5436 5436 5437 5437 5437 5436 5435 5434 5434 5434 5434 5431 5430 5428 5426
5354 5359 5363 5368 5372 5375 5378 5381 5383 5386 5388 5390 5391 5393 5395 5397 5399 5401 5403 5405 5404 5405 5406 5410 5412 5413 5414 5413 5414 5415 5416 5416 5416 5416 5415 5415 5415 5416 5413 5412 5411 5409 5408
5335 5338 5342 5345 5349 5353 5357 5359 5362 5364 5366 5368 5370 5370 5370 5373 5373 5375 5378 5380 5383 5385 5386 5387 5388 5389 5389 5390 5392 5394 5395 5396 5396 5396 5397 5397 5397 5396 5394 5393 5393 5392 5390
5317 5319 5322 5325 5328 5331 5334 5337 5340 5342 5344 5345 5345 5346 5346 5349 5351 5352 5354 5357 5359 5360 5361 5361 5363 5364 5366 5368 5371 5373 5374 5375 5376 5377 5379 5378 5377 5377 5376 5375 5375 5373 5371
5298 5300 5302 5305 5308 5311 5313 5315 5317 5318 5320 5323 5323 5323 5324 5326 5328 5330 5333 5335 5336 5338 5339 5341 5342 5344 5346 5348 5350 5351 5353 5354 5356 5357 5356 5356 5356 5356 5356 5356 5355 5353 5350
5281 5281 5283 5284 5287 5290 5292 5294 5295 5296 5298 5299 5301 5302 5302 5304 5307 5308 5310 5313 5315 5316 5318 5320 5322 5323 5325 5327 5329 5331 5333 5335 5334 5333 5333 5334 5335 5336 5336 5335 5334 5332 5329
5267 5266 5266 5266 5266 5267 5269 5270 5272 5273 5275 5277 5278 5279 5281 5283 5284 5286 5288 5290 5293 5295 5296 5298 5300 5302 5305 5306 5309 5310 5310 5310 5310 5311 5312 5313 5313 5313 5313 5313 5311 5309 5307
Wind_Speed
46 46 46 46 43 41 38 43 46 46 46 47 46 47 47 46 48 47 46 48 50 56 57 38 36 40 39 39 39 39 39 42 41 39 39 41 41 42 44 45 47 48 48
53 50 48 47 45 45 44 41 42 45 51 51 50 45 45 46 46 48 48 49 49 54 45 36 40 41 40 40 40 42 44 44 43 41 41 43 43 43 45 44 46 49 48
49 50 50 48 50 47 45 47 44 46 50 50 44 41 41 41 43 44 44 43 47 50 42 38 42 42 40 43 44 46 47 46 45 45 44 44 44 44 44 44 45 48 48
48 50 54 51 49 50 47 48 48 49 51 41 42 42 41 41 41 42 40 37 38 40 37 42 43 44 45 46 48 50 49 48 48 48 47 46 45 45 47 48 46 47 47
52 49 50 53 53 52 50 55 52 49 45 42 42 45 47 47 45 42 41 38 39 40 44 47 50 48 48 49 50 51 51 51 50 49 49 48 47 46 51 51 48 48 48
54 54 54 55 55 54 55 59 56 56 52 51 51 50 52 51 50 50 48 47 46 47 48 50 50 50 51 51 52 53 53 52 51 51 50 49 48 51 56 56 49 49 51
58 58 62 63 60 59 60 60 62 62 60 59 59 59 58 57 55 55 55 55 53 54 54 53 52 53 54 55 54 54 53 52 53 51 51 52 52 55 61 59 49 51 52
67 66 63 64 64 64 66 65 63 65 64 64 65 65 65 64 62 61 59 59 60 58 58 57 57 56 57 57 55 54 53 53 54 53 55 56 59 61 65 58 54 50 51
68 67 69 69 65 64 65 66 64 65 65 66 64 63 65 66 66 65 63 62 61 61 60 59 59 59 57 56 55 54 54 53 55 57 57 59 62 67 64 58 52 48 51
73 72 72 69 69 67 65 64 65 64 64 67 68 67 63 62 63 63 64 64 62 61 61 62 62 60 57 57 54 54 57 57 58 60 59 61 66 62 59 60 51 51 51
64 65 68 75 78 75 70 66 62 62 62 62 63 64 64 64 64 64 64 62 59 58 58 58 58 59 60 57 56 57 59 61 60 61 62 66 64 62 59 59 53 53 51
69 69 69 70 74 77 75 72 69 66 64 63 59 58 59 63 62 60 57 57 57 58 57 57 56 55 58 59 61 60 61 63 63 65 67 64 62 60 58 60 58 52 50
62 65 69 71 72 72 78 77 74 71 69 65 63 61 57 56 56 56 56 57 59 58 59 60 59 59 60 61 62 63 65 65 65 66 68 64 61 62 58 59 60 54 53
67 67 66 64 66 70 71 75 77 70 68 69 67 64 63 62 61 59 61 63 65 65 65 64 64 64 63 61 62 62 63 64 65 67 64 63 63 63 60 60 61 56 55
66 68 69 66 62 64 64 63 66 64 60 60 62 67 69 69 68 66 66 67 67 66 66 65 61 59 60 63 66 65 65 65 67 64 63 60 66 61 61 64 63 58 56
67 64 67 65 63 60 59 57 56 56 54 53 55 61 67 71 72 70 69 69 68 67 67 63 62 61 62 64 65 65 67 68 64 62 61 67 62 61 63 64 62 57 56
69 67 66 65 63 64 61 57 57 57 55 54 54 56 63 70 70 72 72 70 70 70 67 66 65 63 65 66 63 62 67 65 65 66 64 64 61 61 63 62 57 54 55
69 68 66 64 63 62 62 60 59 57 56 57 59 61 65 69 69 69 70 71 71 69 65 65 67 69 69 69 66 62 66 68 70 66 63 63 63 63 62 59 54 54 57
67 66 65 63 60 60 60 58 57 55 58 59 65 68 72 74 74 71 72 72 72 72 74 73 76 77 70 65 69 72 68 70 67 62 61 60 62 63 60 54 55 58 60
65 64 63 61 60 61 61 59 61 60 59 62 68 75 77 77 82 79 75 73 75 77 77 71 68 67 61 63 69 69 65 63 64 63 62 60 65 64 57 56 58 60 62
62 66 67 66 63 63 63 63 64 66 69 70 73 77 82 84 82 82 79 77 82 85 77 68 64 64 71 72 67 66 66 63 60 59 58 62 67 59 58 59 61 63 64
53 65 70 68 65 61 65 66 67 73 71 73 76 78 84 85 76 77 80 77 73 76 70 69 68 72 70 69 67 69 65 64 61 59 62 67 63 62 62 63 65 66 68
52 55 65 72 70 65 63 63 64 67 66 68 71 72 69 73 73 71 69 68 69 69 69 76 78 74 71 69 68 65 64 61 58 60 64 63 64 65 66 67 68 70 72
50 53 56 61 64 67 67 66 68 66 68 69 66 63 61 63 63 63 63 65 66 66 66 69 69 68 67 65 64 63 61 59 58 59 63 65 67 69 70 71 72 74 74
45 48 52 55 60 60 61 63 68 62 61 64 66 67 61 60 59 59 61 63 63 64 66 67 67 66 64 63 62 61 59 58 62 65 67 69 71 72 74 75 75 76 75
38 39 42 45 48 51 55 57 58 59 61 64 63 61 62 61 61 62 62 62 64 65 66 66 65 64 63 63 64 64 64 66 68 70 72 73 75 77 77 77 76 75 76
Wind_Direction
251 256 258 263 265 271 271 259 256 253 252 253 252 254 259 264 266 266 265 264 266 264 271 266 270 268 270 272 276 282 285 288 295 294 297 298 299 298 297 302 306 310 309
251 255 255 256 260 267 271 271 271 258 255 254 249 251 258 264 268 270 268 265 260 264 267 263 263 263 268 273 278 281 283 286 289 291 294 295 296 295 298 301 302 306 309
258 254 256 256 260 257 261 268 263 259 262 259 244 253 259 262 265 269 272 268 261 257 262 258 260 264 270 274 277 279 281 285 287 289 291 293 292 294 296 298 299 302 306
255 256 256 260 254 257 257 261 266 260 253 251 259 261 257 260 266 270 271 273 261 264 259 259 262 266 269 273 275 277 281 282 285 287 289 290 291 293 293 296 293 296 301
257 253 256 255 257 256 254 257 258 260 258 256 260 265 262 262 266 267 270 267 263 261 257 258 261 266 270 274 277 279 280 282 285 286 288 288 290 291 292 293 291 294 298
258 256 254 255 256 260 261 261 260 257 255 253 254 256 261 264 264 265 265 264 263 263 259 263 269 273 276 278 279 279 279 282 284 284 286 287 289 288 291 297 289 294 294
261 256 253 255 256 257 261 260 261 262 259 256 255 257 259 261 262 263 264 265 265 266 267 270 273 275 276 277 279 279 279 282 282 284 286 283 286 287 293 297 284 286 291
251 258 257 255 255 255 256 261 257 259 262 262 259 259 261 261 263 264 265 266 268 271 272 271 272 274 277 277 278 279 280 282 282 283 284 284 288 288 294 295 283 282 288
252 251 255 258 255 255 257 259 260 259 259 261 263 263 263 264 268 268 267 267 270 271 271 271 272 274 274 275 276 278 279 281 282 282 282 285 286 286 294 292 279 283 286
251 253 252 253 256 257 258 259 261 263 262 262 263 264 266 267 268 269 270 269 271 270 270 270 270 271 272 276 276 279 281 281 280 280 281 282 285 298 295 287 277 280 281
256 254 256 256 256 258 257 260 262 264 266 266 266 267 268 268 268 269 270 270 271 272 272 274 275 275 274 274 273 278 283 284 280 279 279 283 294 296 291 284 276 277 281
261 261 260 259 258 258 258 259 260 262 267 267 266 265 265 267 267 269 269 268 269 266 267 267 265 266 271 276 281 281 280 278 279 279 282 286 291 292 287 284 279 278 280
257 258 260 262 261 260 259 260 262 265 265 265 261 261 263 266 269 269 270 269 268 265 266 269 270 272 279 280 274 273 275 278 281 284 284 285 288 288 283 284 281 276 278
261 256 256 256 256 258 257 257 259 260 260 260 262 261 260 262 265 267 268 267 267 268 270 271 272 276 280 280 279 281 279 282 286 286 283 285 288 285 282 283 280 275 277
262 262 261 261 257 253 253 254 255 256 259 261 264 263 262 261 261 262 264 265 266 267 267 270 274 277 277 278 280 283 282 281 284 282 281 283 287 283 283 282 278 277 280
259 257 258 257 257 255 254 254 256 258 261 264 264 264 262 259 256 258 260 263 266 268 270 270 271 273 274 276 279 281 279 283 277 278 281 287 283 281 283 281 278 279 282
258 257 256 257 256 257 258 260 262 264 267 269 270 267 263 260 257 254 257 259 261 263 266 268 271 272 273 277 278 278 277 275 273 279 283 281 278 282 282 279 278 281 282
256 257 257 257 258 258 259 259 261 264 266 267 266 265 265 262 259 257 256 258 261 266 269 269 268 266 270 274 274 274 272 266 270 276 278 278 277 281 279 276 279 279 280
253 253 255 256 256 254 256 257 258 261 263 266 267 266 265 265 264 263 260 262 262 262 263 265 267 266 272 275 275 269 269 272 272 275 278 279 281 281 274 275 275 277 280
251 247 247 249 249 251 254 253 254 257 259 261 263 262 265 265 266 266 264 262 261 260 260 263 272 267 268 274 270 268 273 277 273 277 280 280 281 274 272 271 274 277 280
252 247 247 246 248 251 253 255 258 258 258 259 261 264 265 267 265 264 264 262 259 263 265 263 258 266 269 264 269 272 274 275 271 274 278 278 272 269 267 270 273 277 279
260 249 246 249 249 251 252 253 258 260 263 265 261 268 263 264 247 250 253 249 252 256 255 253 253 259 262 262 264 270 273 269 270 275 276 271 267 266 267 271 274 278 280
262 260 253 250 251 252 254 257 259 257 260 262 261 259 248 249 250 249 248 250 253 255 259 261 260 260 262 264 265 269 270 271 272 271 270 267 265 266 268 272 276 278 281
264 260 259 259 257 256 259 256 257 258 257 259 254 252 250 248 249 249 251 253 254 257 259 260 261 263 264 266 268 269 268 268 267 265 263 262 263 266 270 273 276 278 281
270 266 260 259 258 255 258 259 258 258 258 254 255 255 255 254 254 254 253 254 256 257 258 261 263 263 263 264 264 265 264 264 262 261 262 263 265 268 270 273 276 279 282
281 276 270 264 259 257 256 255 253 253 256 256 253 251 253 253 253 253 253 253 256 259 261 261 263 262 261 261 261 260 258 258 259 261 263 265 267 269 271 274 277 280 283